Weather History for Glens Falls, NY

Change the Weather History Date:

Thursday, February 6, 2014

  Actual Average Record
Temperature  
Mean Temperature 9 °F 19 °F  
Max Temperature 19 °F 31 °F 50 °F (2012)
Min Temperature -2 °F 8 °F -19 °F (1988)
Degree Days  
Heating Degree Days 56 46  
Month to date heating degree days 246 277  
Since 1 July heating degree days 4695 4673  
Cooling Degree Days 0 0  
Month to date cooling degree days 0 0  
Year to date cooling degree days 0 0  
Moisture  
Dew Point 4 °F    
Average Humidity 75    
Maximum Humidity 91    
Minimum Humidity 59    
Precipitation  
Precipitation T in 0.08 in 0.80 in (2008)
Month to date precipitation 0.49 0.47  
Year to date precipitation 2.42 3.33  
Sea Level Pressure  
Sea Level Pressure 30.26 in    
Wind  
Wind Speed 4 mph (SE)    
Max Wind Speed 13 mph    
Max Gust Speed 15 mph    
Visibility 7 miles    
Events Snow    
T = Trace of Precipitation, MM = Missing Value Source: NWS Daily Summary

Daily Weather History Graph

Daily Weather History Graph

Search for Another Location

Airport:

Trip Planner

Search our weather history database for the weather conditions in past years. The results will help you decide how hot, cold, wet, or windy it might be!

Date:

Astronomy

Feb. 06, 2014 Rise Set
Actual Time 7:04 AM EST 5:13 PM EST
Civil Twilight 6:34 AM EST 5:43 PM EST
Nautical Twilight 6:00 AM EST 6:16 PM EST
Astronomical Twilight 5:27 AM EST 6:50 PM EST
Moon 10:42 AM EST (2/6) 12:17 AM EST (2/6)
Length of Visible Light 11h 08m
Length of Day
10h 08m
Waxing Crescent, 49% of the Moon is Illuminated
Feb 6
Waxing Crescent
Feb 6
First Quarter
Feb 14
Full
Feb 22
Last Quarter
Mar 1
New

Hourly Weather History & Observations

Time (EST) Temp. Windchill Dew Point Humidity Pressure Visibility Wind Dir Wind Speed Gust Speed Precip Events Conditions
12:53 AM 15.1 °F 3.3 °F 8.1 °F 74% 30.13 in 10.0 mi NE 9.2 mph - N/A   Overcast
1:53 AM 14.0 °F 2.9 °F 8.1 °F 77% 30.16 in 10.0 mi NE 8.1 mph - N/A   Overcast
2:53 AM 14.0 °F 6.5 °F 8.1 °F 77% 30.20 in 4.0 mi NE 4.6 mph - 0.00 in Snow Light Snow
3:25 AM 12.2 °F 2.9 °F 8.6 °F 85% 30.17 in 2.5 mi ENE 5.8 mph - 0.00 in Snow Light Snow
3:43 AM 12.2 °F 2.9 °F 6.8 °F 79% 30.18 in 3.0 mi ENE 5.8 mph - 0.00 in Snow Light Snow
3:53 AM 12.0 °F 2.7 °F 7.0 °F 80% 30.23 in 3.0 mi ENE 5.8 mph - 0.00 in Snow Light Snow
4:53 AM 5.0 °F - 1.9 °F 87% 30.26 in 10.0 mi Calm Calm - 0.00 in   Overcast
5:09 AM 3.2 °F - 1.4 °F 92% 30.22 in 10.0 mi Calm Calm - N/A   Overcast
5:53 AM 3.9 °F -3.4 °F -0.0 °F 84% 30.28 in 10.0 mi NE 3.5 mph - N/A   Overcast
6:53 AM 3.9 °F -3.4 °F 1.0 °F 88% 30.30 in 6.0 mi North 3.5 mph - N/A   Overcast
7:15 AM 6.8 °F - 3.2 °F 85% 30.27 in 2.5 mi Calm Calm - N/A   Overcast
7:25 AM 6.8 °F - 1.4 °F 79% 30.27 in 3.0 mi Calm Calm - N/A   Overcast
7:37 AM 5.0 °F - 3.2 °F 92% 30.27 in 1.8 mi Calm Calm - N/A   Overcast
7:43 AM 3.2 °F - 1.4 °F 92% 30.28 in 0.8 mi Calm Calm - N/A   Overcast
7:53 AM 6.1 °F - 3.0 °F 87% 30.32 in 1.0 mi Calm Calm - N/A   Overcast
8:03 AM 6.8 °F - 3.2 °F 85% 30.28 in 0.8 mi Calm Calm - N/A   Overcast
8:07 AM 6.8 °F - 3.2 °F 85% 30.28 in 2.5 mi Calm Calm - N/A   Overcast
8:14 AM 6.8 °F -0.1 °F 3.2 °F 85% 30.28 in 10.0 mi East 3.5 mph - N/A   Overcast
8:53 AM 8.1 °F 1.4 °F 3.0 °F 80% 30.34 in 9.0 mi ESE 3.5 mph - N/A   Overcast
9:53 AM 10.0 °F - 3.9 °F 76% 30.35 in 6.0 mi Calm Calm - N/A   Haze
10:53 AM 12.0 °F - 5.0 °F 73% 30.35 in 10.0 mi Calm Calm - N/A   Overcast
11:53 AM 14.0 °F 5.1 °F 6.1 °F 71% 30.33 in 10.0 mi SSE 5.8 mph - N/A   Overcast
12:38 PM 15.8 °F - 6.8 °F 68% 30.26 in 10.0 mi Calm Calm - N/A   Scattered Clouds
12:53 PM 15.1 °F 4.2 °F 7.0 °F 70% 30.30 in 10.0 mi South 8.1 mph - N/A   Clear
1:53 PM 18.0 °F 11.1 °F 8.1 °F 65% 30.27 in 10.0 mi South 4.6 mph - N/A   Clear
2:53 PM 19.0 °F 9.0 °F 9.0 °F 65% 30.28 in 10.0 mi South 8.1 mph - N/A   Clear
3:53 PM 18.0 °F 7.7 °F 7.0 °F 62% 30.27 in 10.0 mi South 8.1 mph - N/A   Clear
4:53 PM 16.0 °F 7.4 °F 5.0 °F 62% 30.27 in 10.0 mi South 5.8 mph - N/A   Clear
5:53 PM 15.1 °F 7.7 °F 3.9 °F 61% 30.27 in 10.0 mi South 4.6 mph - N/A   Mostly Cloudy
6:53 PM 9.0 °F 0.6 °F 3.0 °F 77% 30.28 in 10.0 mi SW 4.6 mph - N/A   Mostly Cloudy
7:53 PM 8.1 °F - 3.0 °F 80% 30.27 in 10.0 mi Calm Calm - N/A   Overcast
8:53 PM 10.9 °F 4.7 °F 3.0 °F 70% 30.26 in 10.0 mi South 3.5 mph - N/A   Mostly Cloudy
9:53 PM 10.0 °F -1.9 °F 3.0 °F 73% 30.26 in 10.0 mi South 8.1 mph - N/A   Clear
10:53 PM 3.9 °F -5.3 °F 1.0 °F 88% 30.26 in 10.0 mi South 4.6 mph - N/A   Partly Cloudy
11:53 PM -0.0 °F - -4.0 °F 83% 30.25 in 10.0 mi Calm Calm - N/A   Partly Cloudy